Regional Weather Roundup
Issued by NWS

Home | Current Version | Previous Version | Graphics & Text | Print | Product List | Glossary On
Versions: 1 2 3 4 5 6 7 8 9 10 11 12 13 14 15 16 17 18 19 20 21 22 23 24 25 26 27 28 29 30 31 32 33 34 35 36 37 38 39 40 41 42 43 44 45 46 47 48 49 50
000
ASUS43 KBIS 230402
RWRND

NORTH DAKOTA REGIONAL WEATHER ROUNDUP
NATIONAL WEATHER SERVICE BISMARCK ND
1100 PM CDT THU JUN 22 2017

NOTE: "FAIR" INDICATES FEW OR NO CLOUDS BELOW 12,000 FEET WITH NO
SIGNIFICANT WEATHER AND/OR OBSTRUCTIONS TO VISIBILITY.


NDZ001>003-009>011-017-230500-
NORTHWEST NORTH DAKOTA

CITY           SKY/WX    TMP DP  RH WIND       PRES   REMARKS
WILLISTON      CLOUDY    56  49  77 NW23G32   30.01R
MINOT          CLOUDY    60  52  74 W25G35    29.84R
MINOT AFB      CLOUDY    59  52  77 NW31G40   29.82R
$$

NDZ018>021-031>035-040>046-230500-
SOUTHWEST NORTH DAKOTA

CITY           SKY/WX    TMP DP  RH WIND       PRES   REMARKS
BISMARCK       PTCLDY    62  45  53 NW17G25   29.90R
DICKINSON      PTCLDY    55  45  68 NW22G29   29.98R
GARRISON         N/A     56  52  86 NW22G35   29.88R
HETTINGER ARPT MOCLDY    55  41  59 NW20G28   30.04R
$$

NDZ004>008-012>016-024-026-027-054-230500-
NORTHEAST NORTH DAKOTA

CITY           SKY/WX    TMP DP  RH WIND       PRES   REMARKS
GRAND FORKS    PTCLDY    63  46  54 W23G31    29.70R
GRND FRKS AFB  PTCLDY    61  45  56 NW13G24   29.71R
DEVILS LAKE    CLOUDY    60  48  64 W22       29.76R
$$

NDZ022-023-025-028>030-036>039-047>053-230500-
SOUTHEAST NORTH DAKOTA

CITY           SKY/WX    TMP DP  RH WIND       PRES   REMARKS
FARGO          CLEAR     62  40  44 W9        29.73R
JAMESTOWN      CLEAR     63  42  46 NW23G31   29.79R
$$





USA.gov is the U.S. government's official web portal to all federal, state and local government web resources and services.